map of AGA home
Great Circle Mapper logo
AGA - Airport
Location
City:  Agadir, Morocco
Name:Al Massira
ICAO / IATA:GMAD / AGA

Details
Type:Airport (Aerodrome, Airfield)
Use:Public/Civil, International (customs port of entry)
Latitude:3019'30"N (30.324997)
Longitude:924'47"W (-9.413066)
Datum:WGS 1984
Elevation:250 ft (76 m)
Variation:2.9W (WMM2010 magnetic declination)
Runways:1
Longest:10499 × 148 ft (3200 × 45 m), paved

Time
Time Zone:UTC+0 (DST+1)
Local Time:

Weather
METAR:GMAD 281830Z 19009KT 5000 -RA FEW010 BKN016 BKN083 14/13 Q0992 BECMG 5000 -RA
TAF:GMAD 281700Z 2818/2924 24008KT 6000 SCT010 BKN016 BKN100
TEMPO 2818/2924 24020KT 2000 SHRA SCT010 BKN016 SCT030CB BKN100

Related Locations
Nearby:
Farthest:NLK: 12259 mi / 19729 km
Norfolk Island, NF

Find:

   beyond  
but within

Other Information
Maps:
NOTAMs:
Links:
Sources:

  
flag of Morocco   

Sectional Chart

Flight Planning
at skyvector.com

Satellite Image

Google Maps Satellite View

 

Copyright © 2004-2014 Karl L. Swartz. All rights reserved.
The Great Circle Mapper name and logo are trademarks of the Great Circle Mapper.
All other trademarks mentioned herein belong to their respective owners.
Please see credits for attibutions and further copyright information.

  Follow gcmap on Facebook Follow gcmap on Twitter

hCard Microformat

Geo Microformat